Погода в Похвистневе

Россия / Самарская область     53°39′11″N   52°07′20″E
В апреле 2022 года жителям России запретили посещать сайт meteo.paraplan.net по решению Генеральной прокуратуры. Аудитория сайта уменьшилась в 10 раз. Владельцы сайта не видят смысла в поддержке погодного сервера в таких условиях. Сайт будет закрыт в октябре.
темп.,
°C
ветер,
м/с
пор.,
м/с
влажн.,
%
обл.,
%
осадки,
мм/ч
давл.,
гПа
погр.,
м
30 сентября, пт
пт3001:00+6вюв5894100 0.1 1017291
04:00+6в4693100 0.1 1019263
07:00+6в4691100 0.0 1021299
10:00+8в4584100 0.0 1022401
13:00+11в447492 0.0 1023646
16:00+11в4573100 0.0 1024799
19:00+10в477899 0.0 1025355
22:00+8вюв477968 0.0 1026273
1 октября, сб
сб101:00+6в3785100 0.0 1026212
04:00+5в3684100 0.0 1026195
07:00+5в268399 0.0 1026178
10:00+9вюв456556 0.0 1026349
13:00+14юв455234 0.0 1024688
16:00+15ююв45524 0.0 1024907
19:00+11юв35705 0.0 102381
22:00+8вюв256522 0.0 1023103
2 октября, вс
вс201:00+7вюв236815 0.0 102258
04:00+7юв257141 0.0 1022107
07:00+7юв397079 0.0 1021185
10:00+13ююв61051100 0.0 1020456
13:00+17ю7104411 0.0 1019850
16:00+18ю61050100 0.0 1018992
19:00+15ю3107094 0.4 1018339
22:00+15ююв51264100 0.4 1017395
3 октября, пн
пн301:00+13ююв51361100 0.0 1017375
04:00+13ююв51159100 0.0 1018403
07:00+13ююв51267100 0.3 1018420
10:00+15ююв7135339 0.3 1019575
13:00+19ю811385 0.0 10201009
16:00+19ю7113924 0.0 10201151
19:00+16ююв51345100 0.0 1022417
22:00+14ююв5144197 0.0 1023478
4 октября, вт
вт401:00+12ююв5134099 0.0 1024445
04:00+11ююв51543100 0.0 1025430
07:00+10юв5144696 0.0 1026389
10:00+13ююв71437100 0.0 1027640
13:00+15ююв81126100 0.0 10271026
16:00+15ююв61027100 0.0 10271059
19:00+12юв41132100 0.0 1028355
22:00+11юв51232100 0.0 1029380